GEFSSGP_prec_meanprecacc_006.txt.gz
Total_Precipitation_Accumulation
0.00 0.00 0.00 0.00 0.00 0.00 0.00 0.00 0.00 0.00 0.00 0.00 0.00 0.00 0.00 0.00 0.00 0.01 0.00 0.00 0.00 0.00 0.00 0.01 0.01 0.01 0.01 0.01 0.01 0.01 0.03 0.03 0.01 0.01 0.01 0.01 0.00 0.00 0.00 0.00 0.00 0.00 0.00 0.01 0.01 0.04 0.05 0.06 0.08
0.00 0.00 0.00 0.00 0.00 0.00 0.00 0.00 0.00 0.00 0.00 0.00 0.00 0.00 0.00 0.00 0.00 0.00 0.00 0.00 0.00 0.00 0.00 0.01 0.01 0.02 0.04 0.03 0.03 0.03 0.04 0.06 0.04 0.01 0.02 0.00 0.00 0.00 0.01 0.01 0.01 0.00 0.00 0.01 0.01 0.02 0.05 0.07 0.10
0.00 0.00 0.00 0.00 0.00 0.00 0.00 0.00 0.00 0.00 0.00 0.00 0.00 0.00 0.00 0.00 0.00 0.00 0.00 0.00 0.00 0.00 0.00 0.01 0.03 0.04 0.08 0.07 0.06 0.07 0.06 0.07 0.05 0.03 0.03 0.02 0.01 0.01 0.00 0.01 0.02 0.01 0.01 0.01 0.02 0.02 0.04 0.08 0.09
0.00 0.00 0.00 0.00 0.00 0.00 0.00 0.00 0.00 0.00 0.00 0.00 0.00 0.00 0.00 0.00 0.00 0.00 0.00 0.00 0.00 0.00 0.01 0.05 0.06 0.08 0.10 0.10 0.11 0.14 0.10 0.10 0.06 0.04 0.04 0.04 0.03 0.01 0.00 0.02 0.06 0.03 0.00 0.00 0.02 0.03 0.05 0.08 0.12
0.00 0.00 0.00 0.00 0.00 0.00 0.00 0.00 0.00 0.00 0.00 0.00 0.00 0.00 0.00 0.00 0.00 0.00 0.00 0.00 0.00 0.01 0.03 0.05 0.07 0.09 0.14 0.13 0.11 0.15 0.16 0.19 0.10 0.06 0.05 0.04 0.02 0.00 0.00 0.03 0.05 0.06 0.03 0.01 0.01 0.01 0.03 0.05 0.09
0.00 0.00 0.00 0.00 0.00 0.00 0.00 0.00 0.00 0.00 0.00 0.00 0.00 0.00 0.00 0.00 0.00 0.00 0.00 0.00 0.00 0.01 0.02 0.03 0.06 0.10 0.16 0.16 0.16 0.21 0.24 0.24 0.12 0.05 0.07 0.05 0.05 0.02 0.00 0.02 0.02 0.06 0.06 0.03 0.01 0.00 0.00 0.01 0.03
0.00 0.00 0.00 0.00 0.00 0.00 0.00 0.00 0.00 0.00 0.00 0.00 0.00 0.00 0.00 0.00 0.00 0.00 0.00 0.00 0.00 0.01 0.03 0.03 0.04 0.07 0.14 0.21 0.21 0.22 0.24 0.23 0.11 0.04 0.06 0.06 0.05 0.02 0.00 0.01 0.01 0.01 0.02 0.02 0.02 0.01 0.00 0.00 0.00
0.00 0.00 0.00 0.00 0.00 0.00 0.00 0.00 0.00 0.00 0.00 0.00 0.00 0.00 0.00 0.00 0.00 0.00 0.00 0.00 0.00 0.00 0.01 0.02 0.03 0.05 0.11 0.17 0.24 0.27 0.30 0.33 0.15 0.06 0.05 0.05 0.06 0.03 0.00 0.00 0.00 0.01 0.01 0.01 0.01 0.01 0.00 0.00 0.00
0.00 0.00 0.00 0.00 0.00 0.00 0.00 0.00 0.01 0.00 0.00 0.00 0.00 0.00 0.00 0.00 0.00 0.00 0.00 0.00 0.00 0.00 0.00 0.00 0.01 0.02 0.07 0.11 0.16 0.25 0.31 0.37 0.20 0.06 0.03 0.03 0.03 0.04 0.01 0.00 0.00 0.02 0.01 0.00 0.00 0.00 0.00 0.00 0.00
0.00 0.00 0.00 0.00 0.00 0.00 0.00 0.00 0.01 0.00 0.00 0.00 0.00 0.00 0.00 0.00 0.00 0.00 0.00 0.00 0.00 0.00 0.00 0.00 0.00 0.01 0.03 0.05 0.09 0.19 0.22 0.27 0.19 0.05 0.02 0.04 0.02 0.03 0.01 0.00 0.00 0.01 0.01 0.00 0.00 0.00 0.00 0.00 0.00
0.00 0.00 0.00 0.00 0.00 0.00 0.01 0.00 0.00 0.00 0.00 0.00 0.00 0.00 0.00 0.00 0.00 0.00 0.00 0.00 0.00 0.00 0.00 0.00 0.00 0.00 0.01 0.03 0.05 0.10 0.14 0.22 0.22 0.10 0.02 0.04 0.01 0.02 0.00 0.00 0.00 0.00 0.00 0.00 0.00 0.00 0.00 0.00 0.00
0.01 0.01 0.00 0.00 0.00 0.01 0.01 0.01 0.01 0.01 0.00 0.00 0.00 0.00 0.00 0.00 0.00 0.00 0.00 0.00 0.00 0.00 0.00 0.00 0.00 0.00 0.00 0.02 0.06 0.14 0.18 0.23 0.21 0.11 0.01 0.00 0.00 0.01 0.01 0.00 0.00 0.00 0.00 0.00 0.00 0.00 0.00 0.00 0.00
0.03 0.03 0.01 0.00 0.00 0.02 0.03 0.03 0.02 0.02 0.01 0.01 0.01 0.00 0.00 0.00 0.00 0.00 0.00 0.00 0.00 0.00 0.00 0.00 0.00 0.00 0.00 0.01 0.04 0.07 0.08 0.15 0.28 0.23 0.05 0.00 0.00 0.01 0.01 0.00 0.00 0.00 0.00 0.00 0.00 0.00 0.00 0.00 0.00
0.03 0.04 0.03 0.01 0.02 0.02 0.03 0.03 0.02 0.02 0.02 0.01 0.01 0.01 0.00 0.00 0.00 0.00 0.00 0.00 0.00 0.00 0.00 0.00 0.00 0.00 0.00 0.00 0.01 0.02 0.02 0.07 0.12 0.09 0.02 0.00 0.00 0.02 0.02 0.00 0.00 0.00 0.00 0.00 0.00 0.00 0.00 0.00 0.00
0.01 0.01 0.02 0.01 0.01 0.01 0.00 0.00 0.00 0.00 0.00 0.00 0.00 0.01 0.01 0.00 0.00 0.00 0.00 0.00 0.00 0.00 0.00 0.00 0.00 0.00 0.00 0.00 0.00 0.00 0.01 0.03 0.03 0.03 0.01 0.01 0.02 0.05 0.04 0.00 0.00 0.00 0.00 0.00 0.00 0.00 0.00 0.00 0.00
0.00 0.00 0.00 0.00 0.00 0.00 0.00 0.00 0.00 0.00 0.00 0.00 0.00 0.02 0.03 0.02 0.01 0.01 0.00 0.00 0.00 0.00 0.00 0.00 0.00 0.00 0.00 0.00 0.00 0.00 0.00 0.01 0.02 0.04 0.02 0.01 0.03 0.04 0.06 0.02 0.00 0.00 0.00 0.00 0.00 0.00 0.00 0.00 0.00
0.00 0.00 0.00 0.00 0.00 0.00 0.00 0.00 0.00 0.00 0.00 0.00 0.00 0.00 0.02 0.04 0.05 0.05 0.04 0.02 0.02 0.01 0.01 0.00 0.00 0.00 0.00 0.00 0.00 0.00 0.00 0.00 0.01 0.01 0.01 0.01 0.03 0.05 0.09 0.10 0.04 0.00 0.00 0.00 0.00 0.00 0.00 0.00 0.01
0.00 0.00 0.00 0.00 0.00 0.00 0.00 0.00 0.00 0.00 0.00 0.00 0.00 0.00 0.00 0.00 0.02 0.05 0.06 0.08 0.09 0.05 0.03 0.01 0.00 0.00 0.01 0.00 0.00 0.00 0.00 0.00 0.01 0.00 0.02 0.07 0.14 0.17 0.20 0.24 0.18 0.07 0.05 0.06 0.04 0.02 0.01 0.01 0.01
0.01 0.00 0.00 0.00 0.00 0.00 0.00 0.00 0.00 0.00 0.00 0.00 0.00 0.00 0.00 0.00 0.00 0.00 0.01 0.04 0.10 0.12 0.08 0.02 0.00 0.00 0.00 0.00 0.01 0.01 0.01 0.01 0.02 0.03 0.04 0.08 0.15 0.22 0.26 0.33 0.33 0.25 0.21 0.19 0.15 0.11 0.06 0.03 0.01
0.01 0.01 0.00 0.00 0.00 0.00 0.00 0.00 0.00 0.00 0.00 0.00 0.00 0.00 0.00 0.00 0.00 0.00 0.00 0.00 0.01 0.03 0.05 0.06 0.02 0.01 0.00 0.02 0.05 0.08 0.08 0.07 0.08 0.09 0.08 0.08 0.09 0.14 0.18 0.27 0.25 0.18 0.17 0.15 0.10 0.09 0.13 0.10 0.03
0.00 0.00 0.00 0.00 0.00 0.00 0.00 0.00 0.00 0.00 0.00 0.00 0.00 0.00 0.00 0.00 0.00 0.00 0.00 0.00 0.00 0.01 0.01 0.03 0.06 0.05 0.03 0.09 0.20 0.27 0.26 0.22 0.15 0.13 0.16 0.17 0.13 0.09 0.10 0.13 0.13 0.08 0.08 0.11 0.09 0.07 0.08 0.09 0.03
0.00 0.00 0.00 0.00 0.00 0.00 0.00 0.00 0.00 0.00 0.00 0.00 0.00 0.00 0.00 0.00 0.00 0.00 0.00 0.01 0.00 0.00 0.00 0.01 0.03 0.07 0.09 0.20 0.35 0.43 0.43 0.35 0.27 0.22 0.23 0.22 0.14 0.08 0.07 0.07 0.08 0.04 0.02 0.02 0.01 0.01 0.01 0.03 0.02
0.00 0.00 0.00 0.00 0.01 0.00 0.00 0.00 0.00 0.00 0.00 0.00 0.00 0.00 0.00 0.00 0.00 0.00 0.02 0.02 0.04 0.05 0.05 0.05 0.09 0.22 0.36 0.45 0.44 0.45 0.42 0.35 0.28 0.23 0.25 0.23 0.24 0.17 0.10 0.07 0.05 0.02 0.01 0.00 0.00 0.00 0.00 0.00 0.01
0.00 0.00 0.00 0.00 0.00 0.00 0.00 0.00 0.00 0.00 0.00 0.00 0.00 0.00 0.00 0.00 0.00 0.01 0.04 0.06 0.09 0.14 0.15 0.14 0.21 0.31 0.37 0.41 0.47 0.45 0.37 0.35 0.35 0.32 0.28 0.23 0.22 0.18 0.13 0.08 0.03 0.01 0.00 0.00 0.00 0.00 0.00 0.00 0.01
0.00 0.00 0.00 0.00 0.00 0.00 0.00 0.01 0.01 0.00 0.00 0.00 0.00 0.00 0.00 0.00 0.00 0.01 0.03 0.07 0.10 0.15 0.18 0.19 0.24 0.32 0.33 0.35 0.39 0.42 0.41 0.41 0.42 0.38 0.25 0.16 0.12 0.11 0.09 0.06 0.03 0.01 0.00 0.00 0.00 0.00 0.00 0.00 0.01
0.00 0.00 0.01 0.01 0.01 0.00 0.01 0.03 0.03 0.01 0.00 0.00 0.00 0.00 0.00 0.00 0.00 0.01 0.01 0.04 0.08 0.10 0.13 0.19 0.24 0.24 0.24 0.27 0.32 0.35 0.40 0.45 0.45 0.34 0.22 0.17 0.14 0.13 0.10 0.10 0.07 0.05 0.02 0.00 0.00 0.00 0.01 0.01 0.02
0.00 0.00 0.01 0.02 0.01 0.00 0.00 0.03 0.03 0.02 0.01 0.01 0.00 0.01 0.01 0.01 0.00 0.00 0.01 0.03 0.05 0.07 0.09 0.12 0.17 0.22 0.25 0.28 0.33 0.43 0.47 0.43 0.35 0.21 0.14 0.13 0.09 0.06 0.08 0.10 0.08 0.06 0.03 0.02 0.01 0.00 0.01 0.01 0.03
0.00 0.00 0.01 0.02 0.02 0.03 0.04 0.05 0.03 0.02 0.02 0.02 0.02 0.03 0.04 0.02 0.01 0.01 0.05 0.09 0.10 0.07 0.09 0.09 0.13 0.20 0.26 0.29 0.41 0.60 0.58 0.39 0.24 0.15 0.13 0.10 0.07 0.06 0.07 0.04 0.02 0.01 0.01 0.00 0.00 0.00 0.01 0.02 0.02
0.05 0.02 0.01 0.01 0.02 0.08 0.17 0.21 0.21 0.17 0.08 0.08 0.07 0.08 0.11 0.05 0.04 0.04 0.07 0.11 0.10 0.08 0.08 0.09 0.13 0.23 0.30 0.35 0.49 0.60 0.43 0.26 0.17 0.15 0.10 0.05 0.03 0.04 0.06 0.03 0.00 0.00 0.00 0.00 0.01 0.01 0.01 0.01 0.01
0.06 0.05 0.02 0.02 0.04 0.11 0.19 0.28 0.35 0.29 0.19 0.19 0.15 0.18 0.16 0.09 0.09 0.09 0.11 0.10 0.08 0.08 0.07 0.08 0.14 0.24 0.26 0.28 0.32 0.29 0.18 0.13 0.12 0.09 0.05 0.01 0.00 0.01 0.03 0.03 0.01 0.00 0.01 0.02 0.04 0.03 0.01 0.01 0.00

GEFSSGP_prec_meanprecacc_012.txt.gz
Total_Precipitation_Accumulation
0.00 0.00 0.00 0.02 0.09 0.04 0.00 0.00 0.00 0.00 0.00 0.00 0.00 0.00 0.00 0.00 0.01 0.13 0.03 0.00 0.00 0.00 0.00 0.01 0.01 0.01 0.02 0.01 0.02 0.02 0.04 0.04 0.02 0.01 0.02 0.02 0.01 0.00 0.00 0.00 0.01 0.01 0.01 0.02 0.03 0.07 0.10 0.13 0.16
0.00 0.00 0.00 0.02 0.05 0.01 0.00 0.00 0.00 0.00 0.00 0.00 0.00 0.00 0.00 0.00 0.00 0.00 0.00 0.00 0.00 0.00 0.00 0.01 0.01 0.02 0.04 0.03 0.03 0.04 0.06 0.07 0.04 0.02 0.03 0.02 0.00 0.00 0.01 0.01 0.01 0.01 0.01 0.02 0.02 0.03 0.07 0.12 0.17
0.00 0.00 0.00 0.01 0.00 0.00 0.00 0.00 0.00 0.00 0.00 0.00 0.00 0.00 0.00 0.00 0.00 0.00 0.00 0.00 0.00 0.00 0.00 0.02 0.03 0.05 0.09 0.08 0.07 0.08 0.09 0.09 0.06 0.03 0.04 0.02 0.02 0.01 0.01 0.01 0.02 0.02 0.02 0.02 0.02 0.03 0.05 0.10 0.11
0.00 0.00 0.00 0.00 0.00 0.00 0.00 0.00 0.00 0.00 0.00 0.00 0.00 0.00 0.00 0.00 0.00 0.00 0.00 0.00 0.00 0.00 0.01 0.05 0.06 0.09 0.14 0.14 0.15 0.18 0.16 0.14 0.08 0.05 0.05 0.04 0.03 0.01 0.00 0.02 0.06 0.03 0.01 0.01 0.02 0.04 0.07 0.11 0.13
0.00 0.00 0.00 0.00 0.00 0.00 0.00 0.00 0.00 0.00 0.00 0.00 0.00 0.00 0.00 0.00 0.00 0.00 0.00 0.00 0.00 0.01 0.03 0.05 0.07 0.10 0.18 0.18 0.15 0.24 0.26 0.25 0.14 0.07 0.06 0.05 0.03 0.01 0.00 0.04 0.07 0.06 0.04 0.01 0.01 0.03 0.04 0.07 0.11
0.00 0.00 0.00 0.00 0.00 0.00 0.00 0.00 0.00 0.00 0.00 0.00 0.00 0.00 0.00 0.00 0.00 0.00 0.00 0.00 0.00 0.01 0.02 0.03 0.06 0.11 0.19 0.21 0.24 0.35 0.38 0.32 0.18 0.07 0.08 0.07 0.06 0.02 0.00 0.03 0.04 0.07 0.07 0.03 0.01 0.01 0.00 0.01 0.04
0.00 0.00 0.01 0.00 0.00 0.00 0.00 0.00 0.00 0.00 0.00 0.00 0.00 0.00 0.00 0.00 0.00 0.00 0.00 0.00 0.00 0.01 0.03 0.03 0.04 0.07 0.15 0.24 0.29 0.37 0.42 0.37 0.21 0.08 0.09 0.08 0.06 0.02 0.00 0.01 0.02 0.02 0.02 0.02 0.02 0.01 0.00 0.00 0.00
0.00 0.00 0.00 0.00 0.00 0.00 0.00 0.00 0.00 0.00 0.00 0.00 0.00 0.00 0.00 0.00 0.00 0.00 0.00 0.00 0.00 0.00 0.01 0.02 0.03 0.05 0.12 0.18 0.26 0.33 0.42 0.53 0.31 0.11 0.07 0.06 0.06 0.03 0.01 0.00 0.00 0.01 0.01 0.01 0.01 0.01 0.00 0.00 0.00
0.00 0.00 0.00 0.00 0.00 0.00 0.00 0.00 0.01 0.00 0.00 0.00 0.00 0.00 0.00 0.00 0.00 0.00 0.00 0.00 0.00 0.00 0.00 0.00 0.01 0.03 0.09 0.13 0.16 0.26 0.35 0.47 0.32 0.11 0.05 0.05 0.06 0.06 0.01 0.00 0.00 0.02 0.02 0.00 0.00 0.00 0.00 0.00 0.00
0.00 0.00 0.01 0.00 0.00 0.00 0.00 0.00 0.01 0.00 0.00 0.00 0.00 0.00 0.00 0.00 0.00 0.00 0.00 0.00 0.00 0.00 0.00 0.00 0.00 0.01 0.04 0.08 0.14 0.21 0.23 0.30 0.24 0.13 0.04 0.08 0.19 0.14 0.02 0.00 0.00 0.01 0.01 0.00 0.00 0.00 0.00 0.00 0.00
0.00 0.00 0.00 0.00 0.00 0.00 0.01 0.00 0.00 0.00 0.00 0.01 0.00 0.00 0.00 0.00 0.00 0.00 0.00 0.00 0.00 0.00 0.00 0.00 0.00 0.00 0.02 0.11 0.18 0.22 0.27 0.32 0.39 0.39 0.11 0.07 0.13 0.08 0.01 0.00 0.00 0.01 0.00 0.00 0.00 0.00 0.00 0.00 0.00
0.01 0.01 0.00 0.00 0.00 0.01 0.01 0.01 0.01 0.01 0.01 0.01 0.00 0.00 0.00 0.00 0.00 0.00 0.00 0.00 0.00 0.00 0.00 0.00 0.00 0.00 0.00 0.05 0.16 0.27 0.31 0.39 0.46 0.41 0.13 0.04 0.05 0.03 0.01 0.00 0.00 0.00 0.00 0.00 0.00 0.00 0.00 0.00 0.00
0.03 0.03 0.02 0.00 0.00 0.02 0.03 0.03 0.02 0.03 0.02 0.01 0.01 0.00 0.00 0.00 0.01 0.00 0.00 0.00 0.00 0.00 0.00 0.00 0.00 0.00 0.00 0.02 0.07 0.11 0.11 0.22 0.43 0.43 0.15 0.04 0.02 0.02 0.01 0.00 0.00 0.00 0.00 0.00 0.00 0.00 0.00 0.00 0.00
0.03 0.04 0.03 0.01 0.02 0.02 0.03 0.03 0.02 0.03 0.03 0.01 0.01 0.01 0.01 0.02 0.02 0.01 0.01 0.00 0.00 0.00 0.00 0.00 0.00 0.00 0.00 0.00 0.01 0.03 0.03 0.11 0.15 0.11 0.04 0.02 0.01 0.02 0.03 0.00 0.00 0.00 0.00 0.00 0.00 0.00 0.00 0.00 0.00
0.01 0.01 0.02 0.01 0.01 0.01 0.00 0.01 0.01 0.01 0.01 0.00 0.00 0.01 0.01 0.02 0.03 0.03 0.03 0.01 0.00 0.00 0.00 0.00 0.00 0.00 0.00 0.00 0.00 0.00 0.01 0.04 0.04 0.03 0.01 0.01 0.02 0.05 0.04 0.01 0.00 0.00 0.00 0.00 0.00 0.00 0.00 0.00 0.00
0.00 0.00 0.00 0.00 0.00 0.00 0.00 0.01 0.01 0.00 0.00 0.00 0.00 0.02 0.03 0.03 0.03 0.03 0.05 0.05 0.02 0.01 0.01 0.00 0.00 0.00 0.00 0.00 0.00 0.00 0.00 0.01 0.02 0.04 0.03 0.01 0.03 0.04 0.06 0.03 0.00 0.00 0.00 0.00 0.00 0.00 0.00 0.00 0.00
0.00 0.00 0.00 0.00 0.01 0.01 0.00 0.00 0.00 0.00 0.00 0.00 0.00 0.00 0.02 0.04 0.05 0.06 0.07 0.08 0.07 0.05 0.03 0.02 0.00 0.00 0.00 0.00 0.00 0.00 0.00 0.01 0.01 0.01 0.01 0.01 0.03 0.05 0.10 0.12 0.04 0.00 0.00 0.00 0.00 0.00 0.00 0.00 0.01
0.01 0.01 0.01 0.02 0.03 0.03 0.01 0.00 0.00 0.00 0.00 0.00 0.00 0.00 0.00 0.00 0.02 0.05 0.07 0.12 0.17 0.13 0.08 0.05 0.02 0.01 0.01 0.00 0.00 0.00 0.00 0.01 0.01 0.00 0.02 0.07 0.14 0.17 0.21 0.26 0.19 0.08 0.06 0.06 0.04 0.03 0.02 0.01 0.01
0.02 0.00 0.00 0.01 0.01 0.01 0.00 0.00 0.00 0.00 0.00 0.00 0.00 0.00 0.00 0.00 0.00 0.00 0.01 0.05 0.12 0.15 0.11 0.06 0.03 0.02 0.01 0.01 0.02 0.02 0.02 0.02 0.04 0.04 0.04 0.08 0.16 0.23 0.32 0.41 0.38 0.30 0.24 0.19 0.16 0.15 0.18 0.10 0.02
0.01 0.01 0.00 0.01 0.01 0.00 0.00 0.00 0.00 0.00 0.00 0.00 0.00 0.00 0.00 0.00 0.00 0.00 0.00 0.00 0.01 0.04 0.06 0.07 0.04 0.02 0.02 0.03 0.06 0.09 0.12 0.12 0.14 0.13 0.11 0.10 0.10 0.16 0.22 0.31 0.29 0.21 0.20 0.18 0.14 0.19 0.28 0.20 0.05
0.00 0.00 0.00 0.00 0.00 0.00 0.00 0.00 0.00 0.00 0.00 0.00 0.00 0.00 0.00 0.00 0.00 0.00 0.00 0.00 0.00 0.01 0.02 0.04 0.07 0.07 0.04 0.11 0.25 0.40 0.48 0.47 0.36 0.29 0.32 0.28 0.20 0.14 0.15 0.17 0.18 0.14 0.19 0.19 0.14 0.12 0.16 0.16 0.08
0.00 0.00 0.00 0.00 0.00 0.00 0.00 0.00 0.00 0.00 0.00 0.00 0.00 0.00 0.00 0.00 0.00 0.00 0.00 0.01 0.01 0.01 0.01 0.01 0.04 0.08 0.11 0.25 0.51 0.77 0.90 0.82 0.65 0.55 0.47 0.39 0.27 0.19 0.19 0.17 0.20 0.13 0.09 0.06 0.03 0.02 0.05 0.12 0.10
0.00 0.00 0.00 0.00 0.01 0.00 0.00 0.00 0.00 0.01 0.02 0.03 0.03 0.01 0.00 0.00 0.00 0.00 0.02 0.02 0.05 0.06 0.06 0.06 0.11 0.23 0.38 0.50 0.63 0.83 0.92 0.88 0.79 0.71 0.65 0.53 0.46 0.36 0.29 0.27 0.21 0.11 0.09 0.06 0.03 0.01 0.02 0.05 0.07
0.00 0.00 0.00 0.00 0.00 0.00 0.00 0.01 0.04 0.08 0.07 0.06 0.05 0.02 0.01 0.01 0.00 0.02 0.04 0.06 0.10 0.16 0.18 0.18 0.25 0.34 0.40 0.49 0.61 0.69 0.73 0.80 0.84 0.84 0.80 0.66 0.52 0.41 0.36 0.29 0.18 0.11 0.08 0.08 0.05 0.02 0.01 0.01 0.03
0.00 0.00 0.00 0.01 0.01 0.02 0.01 0.04 0.11 0.09 0.06 0.06 0.04 0.02 0.01 0.01 0.01 0.02 0.04 0.08 0.11 0.17 0.20 0.23 0.31 0.40 0.41 0.47 0.55 0.62 0.67 0.75 0.82 0.82 0.66 0.48 0.37 0.34 0.33 0.29 0.23 0.16 0.11 0.10 0.07 0.03 0.01 0.00 0.01
0.00 0.00 0.01 0.02 0.02 0.03 0.03 0.09 0.18 0.10 0.04 0.02 0.02 0.01 0.02 0.03 0.03 0.03 0.03 0.06 0.11 0.13 0.18 0.26 0.32 0.35 0.39 0.48 0.57 0.60 0.67 0.74 0.76 0.64 0.48 0.39 0.35 0.34 0.31 0.33 0.28 0.22 0.15 0.11 0.08 0.04 0.01 0.01 0.02
0.00 0.00 0.01 0.03 0.02 0.02 0.03 0.09 0.11 0.05 0.03 0.02 0.02 0.03 0.04 0.04 0.05 0.04 0.04 0.07 0.09 0.12 0.16 0.21 0.27 0.32 0.39 0.48 0.59 0.72 0.77 0.72 0.63 0.46 0.36 0.32 0.28 0.25 0.29 0.34 0.30 0.22 0.16 0.11 0.08 0.05 0.02 0.02 0.04
0.00 0.01 0.02 0.03 0.04 0.06 0.08 0.13 0.11 0.05 0.05 0.04 0.04 0.05 0.10 0.11 0.10 0.09 0.12 0.15 0.15 0.13 0.18 0.21 0.23 0.31 0.37 0.44 0.60 0.82 0.82 0.62 0.47 0.37 0.36 0.31 0.27 0.25 0.28 0.25 0.21 0.16 0.13 0.10 0.09 0.07 0.03 0.02 0.04
0.05 0.03 0.02 0.02 0.03 0.13 0.28 0.39 0.42 0.38 0.26 0.23 0.20 0.23 0.32 0.28 0.25 0.22 0.26 0.28 0.23 0.19 0.20 0.21 0.26 0.38 0.45 0.49 0.64 0.76 0.60 0.43 0.34 0.32 0.28 0.21 0.17 0.17 0.20 0.17 0.12 0.14 0.15 0.09 0.08 0.05 0.04 0.03 0.04
0.07 0.06 0.03 0.05 0.07 0.16 0.32 0.50 0.61 0.62 0.54 0.58 0.58 0.67 0.60 0.50 0.47 0.41 0.37 0.32 0.24 0.24 0.29 0.30 0.38 0.49 0.45 0.42 0.42 0.38 0.28 0.23 0.22 0.19 0.15 0.10 0.08 0.09 0.12 0.11 0.06 0.06 0.09 0.09 0.11 0.09 0.05 0.04 0.04

GEFSSGP_prec_meanprecacc_018.txt.gz
Total_Precipitation_Accumulation
0.00 0.00 0.01 0.04 0.14 0.06 0.00 0.00 0.00 0.00 0.00 0.00 0.00 0.00 0.00 0.00 0.02 0.15 0.04 0.00 0.00 0.00 0.00 0.01 0.02 0.01 0.02 0.02 0.02 0.02 0.05 0.05 0.03 0.02 0.03 0.02 0.01 0.01 0.01 0.01 0.01 0.01 0.02 0.02 0.04 0.07 0.11 0.16 0.18
0.00 0.00 0.01 0.05 0.10 0.01 0.00 0.00 0.00 0.00 0.00 0.00 0.00 0.00 0.00 0.00 0.00 0.01 0.00 0.00 0.00 0.00 0.00 0.01 0.01 0.02 0.04 0.03 0.03 0.04 0.07 0.08 0.05 0.03 0.04 0.02 0.00 0.00 0.01 0.01 0.02 0.01 0.02 0.02 0.02 0.03 0.09 0.16 0.20
0.00 0.00 0.01 0.05 0.03 0.00 0.00 0.00 0.00 0.00 0.00 0.00 0.00 0.00 0.00 0.00 0.00 0.00 0.00 0.01 0.00 0.00 0.00 0.02 0.03 0.05 0.09 0.08 0.08 0.09 0.10 0.09 0.06 0.04 0.04 0.02 0.02 0.01 0.01 0.02 0.03 0.02 0.02 0.02 0.02 0.03 0.07 0.13 0.15
0.00 0.00 0.02 0.01 0.00 0.00 0.00 0.00 0.00 0.00 0.00 0.00 0.00 0.00 0.00 0.00 0.00 0.00 0.00 0.00 0.00 0.00 0.01 0.05 0.06 0.09 0.14 0.14 0.15 0.19 0.16 0.14 0.09 0.06 0.05 0.05 0.04 0.02 0.01 0.02 0.07 0.04 0.01 0.01 0.03 0.04 0.08 0.13 0.16
0.00 0.01 0.02 0.01 0.00 0.00 0.00 0.00 0.00 0.00 0.00 0.00 0.00 0.00 0.00 0.00 0.00 0.00 0.00 0.01 0.00 0.01 0.03 0.05 0.07 0.10 0.18 0.18 0.16 0.25 0.27 0.26 0.15 0.08 0.06 0.05 0.04 0.01 0.01 0.04 0.07 0.07 0.04 0.01 0.01 0.03 0.05 0.08 0.12
0.00 0.02 0.05 0.01 0.00 0.00 0.00 0.00 0.00 0.00 0.00 0.00 0.00 0.00 0.00 0.00 0.00 0.00 0.00 0.01 0.00 0.02 0.02 0.03 0.06 0.11 0.19 0.22 0.25 0.36 0.38 0.32 0.19 0.08 0.09 0.07 0.06 0.02 0.01 0.03 0.04 0.07 0.07 0.03 0.01 0.01 0.01 0.02 0.04
0.00 0.04 0.08 0.02 0.00 0.00 0.00 0.00 0.00 0.00 0.00 0.00 0.00 0.00 0.00 0.00 0.00 0.00 0.00 0.00 0.00 0.01 0.03 0.03 0.04 0.07 0.15 0.24 0.29 0.38 0.43 0.38 0.23 0.09 0.10 0.09 0.06 0.02 0.01 0.02 0.02 0.02 0.02 0.02 0.02 0.01 0.00 0.00 0.01
0.00 0.03 0.05 0.02 0.01 0.00 0.00 0.00 0.00 0.00 0.00 0.00 0.00 0.00 0.00 0.00 0.00 0.00 0.00 0.00 0.00 0.00 0.01 0.02 0.03 0.05 0.12 0.19 0.29 0.35 0.44 0.56 0.35 0.12 0.08 0.06 0.06 0.03 0.01 0.01 0.00 0.01 0.01 0.01 0.01 0.01 0.00 0.00 0.00
0.00 0.03 0.05 0.05 0.01 0.01 0.00 0.00 0.01 0.00 0.00 0.00 0.00 0.00 0.00 0.00 0.00 0.00 0.00 0.00 0.01 0.00 0.00 0.01 0.01 0.03 0.09 0.14 0.18 0.29 0.36 0.50 0.37 0.13 0.05 0.05 0.06 0.06 0.01 0.01 0.00 0.02 0.02 0.00 0.00 0.00 0.00 0.00 0.00
0.00 0.02 0.04 0.04 0.03 0.02 0.01 0.01 0.02 0.02 0.01 0.01 0.01 0.01 0.00 0.00 0.00 0.00 0.00 0.00 0.00 0.00 0.00 0.00 0.00 0.01 0.04 0.08 0.14 0.22 0.24 0.30 0.26 0.14 0.04 0.08 0.20 0.14 0.02 0.01 0.01 0.01 0.01 0.00 0.00 0.00 0.00 0.00 0.00
0.01 0.02 0.04 0.04 0.03 0.02 0.01 0.01 0.01 0.02 0.03 0.03 0.02 0.02 0.01 0.00 0.00 0.00 0.00 0.00 0.00 0.00 0.00 0.00 0.00 0.00 0.03 0.11 0.18 0.23 0.27 0.33 0.40 0.39 0.12 0.08 0.15 0.09 0.01 0.00 0.00 0.01 0.00 0.00 0.00 0.00 0.00 0.00 0.00
0.02 0.02 0.02 0.02 0.02 0.01 0.01 0.01 0.02 0.02 0.03 0.03 0.02 0.02 0.03 0.03 0.02 0.01 0.00 0.00 0.00 0.00 0.00 0.00 0.00 0.00 0.00 0.05 0.16 0.27 0.31 0.39 0.46 0.41 0.14 0.05 0.07 0.04 0.01 0.00 0.00 0.00 0.00 0.00 0.00 0.00 0.00 0.00 0.00
0.03 0.04 0.03 0.01 0.01 0.02 0.03 0.03 0.03 0.05 0.06 0.04 0.03 0.03 0.04 0.07 0.07 0.05 0.03 0.03 0.01 0.00 0.00 0.00 0.00 0.00 0.00 0.02 0.07 0.11 0.11 0.22 0.43 0.43 0.17 0.08 0.05 0.04 0.03 0.00 0.00 0.00 0.00 0.00 0.00 0.00 0.00 0.00 0.00
0.04 0.06 0.05 0.02 0.02 0.03 0.04 0.05 0.04 0.07 0.08 0.05 0.03 0.04 0.07 0.12 0.15 0.13 0.09 0.06 0.04 0.02 0.02 0.01 0.01 0.00 0.00 0.00 0.01 0.03 0.03 0.11 0.15 0.11 0.05 0.05 0.06 0.06 0.05 0.01 0.00 0.00 0.00 0.00 0.00 0.00 0.00 0.00 0.00
0.01 0.01 0.02 0.01 0.02 0.04 0.05 0.05 0.03 0.05 0.07 0.05 0.03 0.03 0.05 0.09 0.13 0.16 0.14 0.09 0.07 0.06 0.06 0.05 0.05 0.03 0.01 0.01 0.00 0.00 0.01 0.04 0.04 0.03 0.01 0.02 0.05 0.08 0.07 0.02 0.00 0.00 0.00 0.00 0.00 0.00 0.00 0.00 0.00
0.00 0.00 0.00 0.01 0.03 0.07 0.06 0.05 0.05 0.06 0.05 0.04 0.03 0.04 0.05 0.05 0.07 0.12 0.17 0.16 0.13 0.11 0.08 0.08 0.07 0.06 0.04 0.04 0.02 0.01 0.00 0.01 0.02 0.04 0.03 0.01 0.04 0.07 0.09 0.04 0.01 0.00 0.00 0.00 0.00 0.00 0.00 0.00 0.00
0.00 0.00 0.01 0.02 0.05 0.07 0.06 0.06 0.06 0.05 0.04 0.02 0.01 0.01 0.03 0.05 0.06 0.08 0.12 0.15 0.17 0.17 0.13 0.12 0.12 0.09 0.08 0.08 0.07 0.04 0.02 0.01 0.01 0.02 0.01 0.01 0.04 0.07 0.11 0.13 0.04 0.01 0.00 0.00 0.00 0.00 0.00 0.00 0.01
0.01 0.01 0.01 0.03 0.04 0.04 0.05 0.06 0.05 0.03 0.02 0.01 0.00 0.00 0.00 0.00 0.02 0.05 0.08 0.14 0.20 0.20 0.18 0.17 0.17 0.15 0.13 0.11 0.12 0.10 0.07 0.05 0.03 0.02 0.03 0.08 0.16 0.20 0.24 0.30 0.21 0.10 0.07 0.06 0.04 0.03 0.02 0.01 0.01
0.02 0.00 0.00 0.01 0.01 0.01 0.01 0.01 0.02 0.01 0.01 0.00 0.00 0.00 0.00 0.00 0.00 0.00 0.01 0.05 0.12 0.17 0.16 0.15 0.18 0.18 0.15 0.12 0.13 0.12 0.10 0.10 0.10 0.09 0.08 0.12 0.19 0.26 0.35 0.45 0.42 0.34 0.26 0.20 0.16 0.16 0.19 0.11 0.02
0.01 0.01 0.00 0.01 0.01 0.01 0.01 0.01 0.01 0.01 0.01 0.00 0.00 0.00 0.01 0.00 0.00 0.00 0.00 0.00 0.01 0.04 0.09 0.12 0.13 0.14 0.11 0.12 0.16 0.20 0.24 0.24 0.28 0.27 0.24 0.21 0.19 0.23 0.29 0.39 0.38 0.30 0.28 0.22 0.17 0.23 0.33 0.25 0.09
0.00 0.00 0.00 0.00 0.00 0.01 0.01 0.01 0.01 0.02 0.01 0.01 0.01 0.01 0.01 0.01 0.00 0.00 0.00 0.00 0.00 0.01 0.02 0.05 0.10 0.12 0.11 0.18 0.36 0.60 0.80 0.84 0.78 0.70 0.68 0.61 0.50 0.36 0.33 0.34 0.35 0.29 0.32 0.30 0.22 0.20 0.26 0.26 0.17
0.00 0.00 0.00 0.00 0.00 0.00 0.00 0.01 0.02 0.04 0.04 0.04 0.04 0.04 0.04 0.04 0.03 0.02 0.01 0.01 0.01 0.01 0.01 0.02 0.05 0.09 0.13 0.29 0.60 0.97 1.26 1.33 1.28 1.30 1.20 1.07 0.89 0.70 0.60 0.50 0.48 0.35 0.28 0.25 0.20 0.17 0.19 0.24 0.22
0.00 0.00 0.00 0.00 0.01 0.00 0.00 0.01 0.03 0.07 0.11 0.14 0.14 0.14 0.15 0.12 0.09 0.05 0.04 0.03 0.05 0.06 0.06 0.06 0.11 0.23 0.39 0.52 0.68 0.95 1.14 1.23 1.33 1.44 1.53 1.55 1.55 1.37 1.13 0.88 0.62 0.43 0.36 0.33 0.31 0.28 0.24 0.23 0.21
0.00 0.00 0.00 0.00 0.00 0.00 0.00 0.02 0.08 0.16 0.20 0.23 0.23 0.23 0.22 0.16 0.10 0.07 0.06 0.07 0.10 0.16 0.18 0.18 0.25 0.34 0.41 0.50 0.63 0.75 0.84 1.00 1.17 1.31 1.44 1.49 1.51 1.41 1.23 1.00 0.69 0.44 0.35 0.36 0.41 0.39 0.34 0.29 0.23
0.00 0.00 0.00 0.01 0.01 0.02 0.02 0.06 0.15 0.17 0.17 0.19 0.20 0.16 0.12 0.12 0.10 0.08 0.06 0.08 0.11 0.17 0.20 0.24 0.31 0.40 0.41 0.47 0.56 0.66 0.72 0.85 0.99 1.05 1.04 1.01 0.96 0.93 0.89 0.81 0.66 0.48 0.38 0.36 0.41 0.42 0.39 0.31 0.22
0.00 0.00 0.01 0.02 0.02 0.03 0.04 0.13 0.23 0.16 0.10 0.07 0.08 0.08 0.08 0.10 0.10 0.07 0.05 0.07 0.13 0.14 0.19 0.26 0.33 0.36 0.39 0.48 0.58 0.61 0.70 0.81 0.85 0.78 0.69 0.67 0.68 0.71 0.69 0.73 0.66 0.52 0.40 0.35 0.34 0.35 0.32 0.26 0.20
0.00 0.00 0.01 0.03 0.02 0.02 0.05 0.15 0.15 0.07 0.04 0.04 0.06 0.09 0.11 0.13 0.14 0.13 0.11 0.13 0.14 0.16 0.18 0.23 0.28 0.33 0.39 0.49 0.59 0.73 0.79 0.76 0.71 0.56 0.49 0.49 0.46 0.44 0.51 0.63 0.66 0.58 0.45 0.35 0.32 0.34 0.30 0.24 0.20
0.00 0.01 0.02 0.03 0.04 0.06 0.10 0.15 0.13 0.08 0.09 0.10 0.13 0.16 0.23 0.30 0.29 0.28 0.30 0.31 0.27 0.22 0.24 0.25 0.27 0.33 0.39 0.45 0.61 0.84 0.84 0.65 0.51 0.43 0.44 0.43 0.42 0.43 0.47 0.47 0.46 0.42 0.38 0.34 0.32 0.32 0.30 0.24 0.20
0.05 0.03 0.02 0.02 0.03 0.13 0.29 0.42 0.45 0.43 0.36 0.39 0.39 0.43 0.56 0.59 0.58 0.54 0.55 0.54 0.44 0.34 0.31 0.29 0.32 0.42 0.47 0.51 0.66 0.78 0.64 0.47 0.39 0.37 0.34 0.29 0.27 0.27 0.31 0.29 0.26 0.31 0.35 0.28 0.26 0.24 0.24 0.21 0.16
0.07 0.06 0.03 0.05 0.07 0.16 0.33 0.53 0.64 0.69 0.67 0.77 0.82 0.94 0.85 0.79 0.79 0.72 0.65 0.60 0.46 0.40 0.41 0.42 0.48 0.55 0.50 0.45 0.46 0.41 0.30 0.24 0.24 0.21 0.18 0.13 0.12 0.14 0.20 0.20 0.18 0.25 0.34 0.33 0.33 0.31 0.25 0.20 0.15

GEFSSGP_prec_meanprecacc_024.txt.gz
Total_Precipitation_Accumulation
0.00 0.01 0.01 0.06 0.15 0.06 0.00 0.00 0.00 0.00 0.00 0.00 0.00 0.00 0.00 0.00 0.02 0.15 0.04 0.00 0.00 0.00 0.00 0.02 0.03 0.02 0.02 0.02 0.02 0.02 0.05 0.06 0.03 0.03 0.03 0.02 0.01 0.01 0.01 0.01 0.01 0.01 0.03 0.03 0.05 0.10 0.14 0.18 0.21
0.00 0.00 0.01 0.07 0.10 0.01 0.00 0.00 0.00 0.00 0.00 0.00 0.00 0.00 0.00 0.00 0.00 0.01 0.00 0.00 0.00 0.00 0.00 0.01 0.02 0.03 0.05 0.03 0.04 0.05 0.07 0.08 0.05 0.03 0.04 0.02 0.01 0.01 0.02 0.02 0.02 0.01 0.02 0.02 0.03 0.05 0.10 0.17 0.22
0.00 0.00 0.01 0.06 0.03 0.00 0.00 0.00 0.00 0.00 0.00 0.00 0.00 0.00 0.00 0.00 0.00 0.00 0.00 0.01 0.00 0.00 0.00 0.02 0.03 0.06 0.09 0.08 0.08 0.09 0.10 0.10 0.06 0.04 0.04 0.02 0.02 0.01 0.01 0.02 0.03 0.02 0.02 0.02 0.03 0.04 0.08 0.14 0.16
0.00 0.00 0.02 0.02 0.00 0.00 0.00 0.00 0.00 0.00 0.00 0.00 0.00 0.00 0.00 0.00 0.00 0.00 0.00 0.00 0.00 0.00 0.01 0.05 0.06 0.09 0.14 0.15 0.16 0.19 0.16 0.14 0.10 0.06 0.05 0.05 0.04 0.02 0.01 0.03 0.07 0.04 0.01 0.01 0.03 0.05 0.09 0.14 0.17
0.00 0.01 0.02 0.01 0.00 0.00 0.00 0.00 0.00 0.00 0.00 0.00 0.00 0.00 0.00 0.00 0.00 0.00 0.01 0.01 0.00 0.01 0.03 0.05 0.07 0.11 0.19 0.19 0.16 0.25 0.27 0.26 0.15 0.08 0.06 0.05 0.04 0.01 0.01 0.05 0.07 0.07 0.04 0.01 0.01 0.03 0.05 0.08 0.13
0.00 0.02 0.05 0.01 0.00 0.00 0.00 0.00 0.00 0.00 0.00 0.00 0.00 0.00 0.00 0.00 0.00 0.00 0.01 0.01 0.00 0.02 0.02 0.03 0.06 0.11 0.19 0.22 0.25 0.36 0.39 0.33 0.19 0.08 0.09 0.07 0.06 0.02 0.01 0.03 0.04 0.07 0.07 0.03 0.01 0.01 0.01 0.02 0.05
0.00 0.04 0.08 0.02 0.00 0.00 0.00 0.00 0.00 0.00 0.00 0.00 0.00 0.00 0.00 0.00 0.00 0.00 0.00 0.00 0.00 0.01 0.03 0.03 0.04 0.07 0.15 0.25 0.30 0.39 0.44 0.38 0.23 0.09 0.10 0.09 0.06 0.02 0.01 0.02 0.02 0.02 0.02 0.02 0.02 0.01 0.00 0.00 0.01
0.00 0.03 0.06 0.03 0.01 0.01 0.00 0.00 0.00 0.00 0.00 0.00 0.00 0.00 0.00 0.00 0.00 0.00 0.00 0.01 0.00 0.00 0.01 0.02 0.03 0.05 0.13 0.20 0.30 0.36 0.45 0.57 0.35 0.12 0.08 0.07 0.06 0.04 0.01 0.01 0.00 0.01 0.01 0.01 0.01 0.01 0.00 0.00 0.00
0.00 0.03 0.07 0.06 0.02 0.02 0.01 0.01 0.01 0.01 0.00 0.00 0.00 0.00 0.00 0.00 0.00 0.00 0.00 0.01 0.01 0.01 0.00 0.01 0.01 0.03 0.09 0.14 0.18 0.29 0.38 0.51 0.38 0.14 0.06 0.05 0.06 0.06 0.01 0.01 0.00 0.02 0.02 0.00 0.00 0.00 0.00 0.00 0.00
0.00 0.02 0.05 0.05 0.03 0.04 0.03 0.02 0.03 0.02 0.02 0.01 0.01 0.01 0.00 0.00 0.00 0.01 0.02 0.02 0.01 0.01 0.00 0.00 0.00 0.01 0.04 0.08 0.14 0.22 0.25 0.32 0.28 0.15 0.04 0.08 0.20 0.14 0.02 0.01 0.01 0.01 0.01 0.00 0.00 0.00 0.00 0.00 0.00
0.01 0.02 0.05 0.05 0.04 0.03 0.03 0.02 0.03 0.03 0.03 0.03 0.02 0.02 0.02 0.01 0.03 0.05 0.07 0.07 0.05 0.03 0.02 0.01 0.01 0.00 0.03 0.11 0.18 0.23 0.27 0.33 0.41 0.40 0.12 0.08 0.15 0.09 0.01 0.00 0.00 0.01 0.00 0.00 0.00 0.00 0.00 0.00 0.00
0.02 0.02 0.03 0.03 0.02 0.02 0.03 0.03 0.04 0.04 0.05 0.05 0.03 0.03 0.05 0.07 0.07 0.07 0.11 0.14 0.14 0.12 0.08 0.06 0.03 0.02 0.01 0.05 0.16 0.27 0.31 0.39 0.46 0.43 0.16 0.05 0.07 0.04 0.01 0.00 0.00 0.00 0.00 0.00 0.00 0.00 0.00 0.00 0.00
0.04 0.05 0.04 0.03 0.03 0.04 0.06 0.06 0.06 0.07 0.09 0.07 0.07 0.09 0.13 0.16 0.16 0.13 0.12 0.14 0.15 0.19 0.21 0.21 0.15 0.09 0.06 0.05 0.08 0.12 0.12 0.22 0.43 0.44 0.18 0.08 0.05 0.04 0.03 0.00 0.00 0.00 0.00 0.00 0.00 0.00 0.00 0.00 0.00
0.04 0.06 0.06 0.04 0.05 0.06 0.09 0.09 0.07 0.10 0.12 0.10 0.10 0.15 0.20 0.26 0.29 0.26 0.22 0.19 0.17 0.17 0.25 0.30 0.32 0.28 0.20 0.12 0.08 0.07 0.05 0.12 0.15 0.11 0.05 0.06 0.06 0.06 0.06 0.03 0.01 0.00 0.00 0.00 0.00 0.00 0.00 0.00 0.00
0.01 0.02 0.02 0.02 0.03 0.06 0.09 0.09 0.06 0.08 0.11 0.10 0.09 0.11 0.15 0.21 0.27 0.30 0.27 0.21 0.18 0.17 0.22 0.30 0.35 0.36 0.32 0.26 0.23 0.15 0.11 0.09 0.06 0.04 0.02 0.03 0.05 0.09 0.09 0.05 0.03 0.00 0.00 0.00 0.00 0.00 0.00 0.00 0.00
0.00 0.00 0.00 0.01 0.04 0.08 0.08 0.06 0.07 0.10 0.09 0.07 0.06 0.07 0.10 0.12 0.14 0.20 0.25 0.25 0.22 0.21 0.20 0.26 0.29 0.32 0.37 0.40 0.42 0.34 0.23 0.15 0.10 0.08 0.04 0.02 0.04 0.08 0.11 0.08 0.05 0.04 0.02 0.01 0.01 0.00 0.00 0.00 0.00
0.00 0.00 0.01 0.02 0.05 0.07 0.07 0.07 0.07 0.07 0.05 0.03 0.02 0.03 0.05 0.07 0.09 0.11 0.15 0.19 0.23 0.24 0.22 0.22 0.25 0.28 0.34 0.42 0.46 0.42 0.32 0.21 0.15 0.12 0.06 0.05 0.06 0.10 0.15 0.18 0.14 0.11 0.07 0.04 0.02 0.00 0.00 0.00 0.01
0.01 0.01 0.02 0.03 0.04 0.05 0.06 0.07 0.06 0.04 0.02 0.01 0.01 0.02 0.02 0.01 0.03 0.06 0.09 0.15 0.22 0.24 0.24 0.24 0.26 0.26 0.29 0.33 0.39 0.39 0.30 0.23 0.21 0.16 0.15 0.18 0.24 0.27 0.31 0.38 0.34 0.24 0.18 0.15 0.09 0.05 0.03 0.01 0.01
0.02 0.00 0.00 0.01 0.01 0.01 0.01 0.02 0.02 0.01 0.01 0.00 0.00 0.01 0.01 0.01 0.01 0.00 0.02 0.06 0.13 0.18 0.17 0.18 0.23 0.26 0.24 0.23 0.27 0.30 0.26 0.27 0.29 0.31 0.34 0.36 0.37 0.41 0.50 0.61 0.62 0.55 0.43 0.36 0.30 0.23 0.21 0.12 0.02
0.01 0.01 0.00 0.01 0.01 0.01 0.01 0.01 0.01 0.01 0.01 0.00 0.01 0.01 0.01 0.01 0.01 0.01 0.00 0.01 0.01 0.05 0.09 0.13 0.14 0.17 0.16 0.17 0.22 0.30 0.35 0.37 0.45 0.56 0.59 0.57 0.50 0.49 0.54 0.64 0.67 0.60 0.55 0.48 0.39 0.37 0.41 0.28 0.11
0.00 0.00 0.00 0.00 0.00 0.01 0.01 0.01 0.02 0.02 0.02 0.01 0.02 0.02 0.02 0.02 0.02 0.02 0.01 0.01 0.01 0.02 0.02 0.06 0.10 0.13 0.12 0.19 0.38 0.64 0.87 0.93 0.91 0.90 1.00 1.03 0.90 0.73 0.68 0.68 0.71 0.68 0.69 0.63 0.51 0.45 0.45 0.39 0.27
0.00 0.00 0.00 0.00 0.00 0.00 0.00 0.01 0.02 0.04 0.05 0.06 0.06 0.07 0.07 0.07 0.06 0.04 0.02 0.02 0.02 0.01 0.01 0.02 0.05 0.10 0.13 0.29 0.60 0.98 1.29 1.37 1.35 1.45 1.47 1.47 1.35 1.15 1.05 0.96 0.92 0.79 0.71 0.63 0.53 0.45 0.44 0.47 0.42
0.00 0.00 0.00 0.00 0.01 0.00 0.00 0.01 0.03 0.07 0.12 0.16 0.16 0.17 0.18 0.15 0.11 0.07 0.05 0.04 0.06 0.06 0.06 0.07 0.11 0.23 0.39 0.53 0.68 0.95 1.14 1.24 1.36 1.52 1.66 1.75 1.85 1.79 1.65 1.46 1.19 0.97 0.82 0.72 0.65 0.58 0.53 0.51 0.46
0.00 0.00 0.00 0.00 0.00 0.00 0.00 0.02 0.08 0.16 0.20 0.24 0.24 0.25 0.23 0.18 0.12 0.09 0.08 0.08 0.12 0.17 0.19 0.19 0.25 0.34 0.41 0.51 0.64 0.76 0.85 1.01 1.18 1.34 1.49 1.60 1.70 1.69 1.62 1.43 1.14 0.88 0.72 0.67 0.68 0.67 0.63 0.58 0.50
0.00 0.00 0.00 0.01 0.01 0.02 0.02 0.06 0.15 0.17 0.17 0.20 0.21 0.18 0.14 0.15 0.15 0.12 0.11 0.12 0.15 0.21 0.24 0.27 0.33 0.41 0.42 0.47 0.57 0.66 0.73 0.86 1.00 1.06 1.07 1.06 1.04 1.05 1.06 1.00 0.88 0.75 0.66 0.64 0.69 0.71 0.69 0.62 0.52
0.00 0.00 0.01 0.02 0.02 0.03 0.04 0.13 0.24 0.16 0.10 0.08 0.10 0.11 0.12 0.16 0.19 0.18 0.15 0.18 0.22 0.25 0.29 0.34 0.37 0.39 0.42 0.50 0.59 0.62 0.71 0.82 0.87 0.79 0.70 0.69 0.70 0.74 0.75 0.81 0.78 0.71 0.65 0.61 0.60 0.61 0.62 0.57 0.49
0.00 0.00 0.01 0.03 0.02 0.02 0.05 0.15 0.15 0.07 0.04 0.05 0.09 0.15 0.19 0.25 0.27 0.28 0.28 0.31 0.32 0.33 0.35 0.36 0.39 0.41 0.47 0.52 0.61 0.74 0.80 0.78 0.72 0.58 0.50 0.50 0.48 0.46 0.55 0.68 0.73 0.70 0.66 0.63 0.61 0.64 0.59 0.53 0.47
0.00 0.01 0.02 0.03 0.04 0.06 0.11 0.15 0.13 0.08 0.10 0.12 0.17 0.23 0.34 0.42 0.43 0.44 0.48 0.49 0.45 0.40 0.44 0.46 0.46 0.49 0.50 0.52 0.66 0.87 0.86 0.66 0.52 0.44 0.45 0.44 0.43 0.44 0.50 0.51 0.51 0.51 0.55 0.56 0.59 0.65 0.64 0.55 0.47
0.05 0.03 0.02 0.02 0.03 0.13 0.29 0.42 0.46 0.45 0.38 0.42 0.42 0.48 0.62 0.66 0.67 0.67 0.67 0.68 0.60 0.57 0.54 0.53 0.57 0.62 0.64 0.63 0.74 0.83 0.66 0.47 0.39 0.38 0.34 0.29 0.27 0.27 0.32 0.30 0.29 0.36 0.42 0.40 0.43 0.47 0.52 0.52 0.48
0.07 0.06 0.03 0.05 0.07 0.16 0.33 0.54 0.64 0.70 0.68 0.78 0.84 0.96 0.88 0.82 0.82 0.76 0.69 0.66 0.54 0.53 0.59 0.63 0.72 0.76 0.65 0.60 0.57 0.47 0.33 0.27 0.26 0.23 0.19 0.14 0.13 0.15 0.20 0.21 0.20 0.26 0.37 0.39 0.42 0.43 0.40 0.39 0.36

GEFSSGP_prec_meanprecacc_030.txt.gz
Total_Precipitation_Accumulation
0.00 0.01 0.01 0.06 0.15 0.06 0.00 0.00 0.00 0.00 0.00 0.00 0.00 0.00 0.00 0.00 0.02 0.16 0.04 0.00 0.00 0.00 0.01 0.02 0.03 0.03 0.03 0.02 0.03 0.04 0.07 0.08 0.06 0.05 0.05 0.04 0.03 0.03 0.03 0.03 0.02 0.02 0.04 0.06 0.09 0.14 0.18 0.22 0.26
0.00 0.00 0.02 0.07 0.10 0.01 0.00 0.00 0.00 0.00 0.00 0.00 0.00 0.00 0.00 0.00 0.00 0.01 0.00 0.00 0.00 0.00 0.00 0.01 0.02 0.03 0.05 0.04 0.05 0.05 0.09 0.11 0.09 0.06 0.06 0.04 0.03 0.04 0.05 0.03 0.03 0.02 0.03 0.04 0.06 0.08 0.15 0.22 0.27
0.00 0.00 0.01 0.06 0.03 0.00 0.00 0.00 0.00 0.00 0.00 0.00 0.00 0.00 0.00 0.00 0.00 0.00 0.00 0.01 0.00 0.00 0.00 0.02 0.04 0.06 0.09 0.08 0.09 0.10 0.11 0.12 0.09 0.07 0.06 0.04 0.04 0.03 0.03 0.03 0.04 0.03 0.03 0.04 0.05 0.07 0.12 0.19 0.20
0.00 0.00 0.02 0.02 0.00 0.00 0.00 0.00 0.00 0.00 0.00 0.00 0.00 0.00 0.00 0.00 0.00 0.00 0.00 0.00 0.00 0.00 0.01 0.05 0.06 0.09 0.14 0.15 0.16 0.20 0.18 0.16 0.11 0.08 0.06 0.06 0.05 0.02 0.02 0.04 0.08 0.05 0.02 0.02 0.05 0.08 0.13 0.17 0.20
0.00 0.01 0.02 0.01 0.00 0.00 0.00 0.00 0.00 0.00 0.00 0.00 0.00 0.00 0.00 0.00 0.00 0.00 0.01 0.01 0.00 0.01 0.03 0.05 0.07 0.11 0.19 0.19 0.16 0.26 0.28 0.27 0.17 0.10 0.07 0.06 0.04 0.01 0.02 0.06 0.08 0.07 0.04 0.02 0.02 0.05 0.09 0.12 0.16
0.00 0.02 0.05 0.02 0.00 0.00 0.00 0.00 0.00 0.00 0.00 0.00 0.00 0.00 0.00 0.00 0.00 0.00 0.01 0.01 0.00 0.02 0.02 0.04 0.07 0.12 0.20 0.22 0.25 0.37 0.39 0.33 0.20 0.09 0.10 0.08 0.06 0.02 0.02 0.04 0.05 0.08 0.08 0.03 0.02 0.02 0.03 0.05 0.08
0.00 0.04 0.08 0.02 0.00 0.00 0.00 0.00 0.00 0.00 0.00 0.00 0.00 0.00 0.00 0.00 0.00 0.00 0.00 0.00 0.00 0.01 0.03 0.03 0.05 0.08 0.15 0.25 0.30 0.40 0.46 0.40 0.24 0.10 0.11 0.10 0.07 0.03 0.02 0.02 0.02 0.03 0.03 0.02 0.02 0.01 0.01 0.01 0.02
0.00 0.03 0.06 0.03 0.02 0.01 0.01 0.00 0.01 0.00 0.00 0.00 0.00 0.00 0.00 0.00 0.00 0.01 0.00 0.01 0.00 0.00 0.01 0.02 0.03 0.06 0.13 0.21 0.32 0.40 0.50 0.60 0.39 0.15 0.09 0.08 0.07 0.04 0.02 0.02 0.01 0.01 0.01 0.01 0.01 0.01 0.00 0.00 0.00
0.00 0.03 0.07 0.07 0.03 0.02 0.02 0.01 0.03 0.03 0.02 0.01 0.00 0.00 0.00 0.01 0.02 0.04 0.04 0.04 0.03 0.01 0.01 0.01 0.01 0.04 0.09 0.15 0.20 0.36 0.48 0.61 0.44 0.19 0.08 0.06 0.07 0.08 0.03 0.03 0.01 0.02 0.02 0.00 0.00 0.00 0.00 0.00 0.01
0.00 0.02 0.05 0.05 0.03 0.04 0.03 0.03 0.05 0.05 0.04 0.03 0.02 0.02 0.02 0.03 0.07 0.11 0.13 0.11 0.09 0.06 0.02 0.01 0.01 0.02 0.05 0.09 0.15 0.28 0.36 0.45 0.37 0.24 0.12 0.12 0.23 0.16 0.02 0.02 0.01 0.02 0.01 0.00 0.00 0.00 0.00 0.00 0.00
0.01 0.03 0.05 0.05 0.04 0.03 0.03 0.04 0.04 0.05 0.05 0.05 0.04 0.05 0.06 0.09 0.12 0.16 0.20 0.20 0.18 0.15 0.10 0.05 0.03 0.02 0.05 0.13 0.21 0.28 0.37 0.45 0.52 0.50 0.22 0.17 0.21 0.12 0.01 0.01 0.01 0.01 0.01 0.00 0.00 0.00 0.00 0.00 0.00
0.02 0.03 0.03 0.04 0.04 0.04 0.04 0.05 0.06 0.06 0.07 0.07 0.07 0.10 0.16 0.21 0.21 0.22 0.27 0.32 0.34 0.31 0.27 0.20 0.10 0.07 0.07 0.12 0.21 0.34 0.38 0.47 0.54 0.51 0.25 0.18 0.18 0.10 0.04 0.01 0.01 0.00 0.00 0.00 0.00 0.00 0.00 0.00 0.00
0.04 0.06 0.05 0.05 0.05 0.06 0.08 0.08 0.07 0.08 0.10 0.10 0.13 0.19 0.26 0.29 0.28 0.25 0.26 0.31 0.36 0.44 0.50 0.47 0.31 0.23 0.22 0.20 0.18 0.19 0.18 0.29 0.52 0.53 0.25 0.17 0.15 0.13 0.09 0.02 0.01 0.00 0.00 0.00 0.00 0.00 0.00 0.00 0.00
0.05 0.07 0.07 0.04 0.06 0.07 0.10 0.10 0.08 0.10 0.13 0.12 0.14 0.20 0.27 0.34 0.37 0.35 0.32 0.30 0.30 0.33 0.43 0.51 0.48 0.47 0.44 0.34 0.24 0.19 0.16 0.24 0.29 0.22 0.13 0.14 0.13 0.13 0.14 0.06 0.02 0.01 0.00 0.01 0.00 0.00 0.00 0.00 0.00
0.01 0.02 0.03 0.02 0.03 0.06 0.09 0.09 0.06 0.08 0.12 0.11 0.10 0.13 0.18 0.24 0.31 0.35 0.32 0.25 0.24 0.25 0.31 0.40 0.47 0.52 0.54 0.54 0.50 0.37 0.31 0.28 0.23 0.19 0.14 0.14 0.14 0.16 0.17 0.10 0.05 0.01 0.01 0.00 0.00 0.00 0.00 0.00 0.00
0.00 0.00 0.01 0.01 0.04 0.08 0.09 0.07 0.07 0.10 0.09 0.08 0.07 0.08 0.11 0.12 0.15 0.21 0.27 0.27 0.24 0.24 0.24 0.30 0.35 0.42 0.51 0.59 0.64 0.61 0.54 0.43 0.32 0.24 0.17 0.14 0.15 0.18 0.22 0.15 0.09 0.07 0.03 0.02 0.01 0.00 0.00 0.00 0.00
0.00 0.01 0.01 0.02 0.05 0.07 0.07 0.07 0.07 0.07 0.05 0.03 0.03 0.03 0.05 0.07 0.09 0.11 0.15 0.20 0.24 0.24 0.23 0.24 0.28 0.32 0.39 0.49 0.55 0.55 0.52 0.45 0.40 0.35 0.22 0.17 0.17 0.21 0.28 0.28 0.23 0.20 0.15 0.09 0.05 0.01 0.01 0.01 0.01
0.01 0.01 0.02 0.03 0.04 0.05 0.06 0.07 0.06 0.04 0.02 0.01 0.01 0.02 0.02 0.01 0.03 0.06 0.09 0.15 0.23 0.24 0.24 0.24 0.26 0.27 0.30 0.35 0.42 0.45 0.38 0.35 0.39 0.34 0.30 0.32 0.37 0.39 0.44 0.51 0.49 0.41 0.31 0.25 0.18 0.12 0.07 0.03 0.02
0.02 0.00 0.00 0.01 0.01 0.01 0.01 0.02 0.02 0.01 0.01 0.00 0.00 0.01 0.01 0.01 0.01 0.01 0.02 0.06 0.13 0.18 0.17 0.18 0.24 0.26 0.24 0.23 0.27 0.32 0.30 0.34 0.41 0.47 0.49 0.52 0.54 0.56 0.65 0.76 0.82 0.78 0.60 0.52 0.46 0.37 0.31 0.17 0.04
0.01 0.01 0.00 0.01 0.01 0.01 0.01 0.01 0.01 0.01 0.01 0.00 0.01 0.01 0.01 0.01 0.01 0.01 0.01 0.01 0.02 0.05 0.09 0.13 0.15 0.17 0.16 0.17 0.22 0.30 0.36 0.39 0.49 0.62 0.70 0.70 0.67 0.67 0.68 0.79 0.84 0.81 0.75 0.70 0.60 0.54 0.55 0.39 0.15
0.00 0.00 0.00 0.00 0.00 0.01 0.01 0.01 0.02 0.02 0.02 0.01 0.02 0.02 0.02 0.02 0.02 0.02 0.01 0.01 0.01 0.02 0.03 0.06 0.10 0.13 0.12 0.20 0.38 0.64 0.88 0.94 0.93 0.93 1.05 1.13 1.05 0.93 0.89 0.86 0.91 0.89 0.90 0.83 0.73 0.65 0.65 0.56 0.36
0.00 0.00 0.00 0.00 0.00 0.00 0.00 0.01 0.02 0.04 0.05 0.06 0.06 0.07 0.07 0.08 0.06 0.04 0.03 0.03 0.02 0.02 0.02 0.02 0.06 0.10 0.13 0.30 0.61 0.99 1.30 1.39 1.36 1.47 1.50 1.53 1.44 1.27 1.20 1.15 1.14 1.01 0.90 0.81 0.73 0.65 0.64 0.69 0.61
0.00 0.00 0.00 0.00 0.01 0.00 0.00 0.01 0.03 0.07 0.12 0.16 0.16 0.17 0.18 0.15 0.11 0.08 0.06 0.05 0.07 0.08 0.08 0.08 0.14 0.26 0.42 0.55 0.70 0.98 1.16 1.26 1.38 1.54 1.69 1.79 1.90 1.85 1.74 1.60 1.34 1.11 0.96 0.86 0.83 0.77 0.70 0.67 0.64
0.00 0.00 0.00 0.00 0.00 0.00 0.00 0.02 0.08 0.16 0.20 0.24 0.24 0.25 0.23 0.19 0.13 0.10 0.09 0.10 0.15 0.22 0.23 0.24 0.32 0.40 0.47 0.56 0.68 0.79 0.87 1.04 1.21 1.36 1.52 1.63 1.75 1.75 1.68 1.51 1.23 0.99 0.83 0.78 0.83 0.81 0.76 0.70 0.64
0.00 0.00 0.00 0.01 0.01 0.02 0.02 0.06 0.15 0.17 0.17 0.20 0.21 0.18 0.15 0.15 0.15 0.14 0.13 0.18 0.23 0.30 0.33 0.39 0.45 0.52 0.52 0.57 0.64 0.72 0.78 0.90 1.04 1.10 1.11 1.10 1.08 1.10 1.11 1.05 0.95 0.84 0.74 0.73 0.80 0.84 0.81 0.75 0.67
0.00 0.00 0.01 0.02 0.02 0.03 0.04 0.13 0.24 0.16 0.10 0.08 0.10 0.11 0.12 0.17 0.20 0.20 0.19 0.26 0.31 0.38 0.46 0.54 0.59 0.58 0.58 0.64 0.70 0.71 0.78 0.88 0.91 0.83 0.75 0.74 0.74 0.79 0.80 0.85 0.81 0.76 0.70 0.66 0.67 0.70 0.71 0.68 0.62
0.00 0.00 0.01 0.03 0.02 0.02 0.05 0.15 0.15 0.07 0.05 0.05 0.09 0.15 0.20 0.26 0.30 0.31 0.32 0.37 0.40 0.47 0.56 0.63 0.65 0.65 0.69 0.72 0.78 0.90 0.89 0.85 0.77 0.62 0.53 0.53 0.50 0.48 0.58 0.71 0.77 0.74 0.70 0.67 0.66 0.70 0.67 0.63 0.59
0.00 0.01 0.02 0.03 0.04 0.06 0.11 0.15 0.13 0.08 0.10 0.12 0.17 0.24 0.35 0.44 0.45 0.47 0.52 0.55 0.55 0.55 0.63 0.69 0.74 0.76 0.75 0.78 0.89 1.07 0.98 0.73 0.56 0.46 0.46 0.46 0.45 0.46 0.51 0.52 0.53 0.53 0.57 0.59 0.62 0.69 0.71 0.64 0.59
0.05 0.03 0.02 0.02 0.03 0.13 0.29 0.42 0.46 0.45 0.38 0.42 0.42 0.49 0.63 0.68 0.69 0.69 0.70 0.72 0.66 0.66 0.72 0.75 0.80 0.90 0.91 0.86 0.92 0.97 0.76 0.53 0.42 0.40 0.35 0.30 0.28 0.29 0.34 0.32 0.31 0.38 0.44 0.41 0.45 0.50 0.57 0.61 0.60
0.07 0.06 0.03 0.05 0.07 0.16 0.33 0.54 0.64 0.70 0.68 0.79 0.85 0.96 0.89 0.83 0.83 0.76 0.70 0.68 0.57 0.57 0.66 0.74 0.83 0.88 0.81 0.75 0.72 0.58 0.41 0.32 0.30 0.26 0.21 0.15 0.14 0.15 0.21 0.22 0.21 0.27 0.38 0.39 0.44 0.46 0.44 0.45 0.47

GEFSSGP_prec_meanprecacc_036.txt.gz
Total_Precipitation_Accumulation
0.00 0.01 0.02 0.08 0.25 0.10 0.00 0.00 0.00 0.00 0.00 0.00 0.00 0.00 0.00 0.01 0.08 0.26 0.05 0.00 0.00 0.00 0.01 0.02 0.03 0.03 0.04 0.03 0.03 0.04 0.08 0.09 0.07 0.06 0.06 0.05 0.04 0.04 0.04 0.03 0.03 0.02 0.04 0.07 0.11 0.18 0.22 0.26 0.31
0.00 0.01 0.03 0.12 0.17 0.02 0.00 0.00 0.00 0.00 0.00 0.00 0.00 0.00 0.00 0.00 0.00 0.01 0.00 0.00 0.00 0.00 0.01 0.01 0.02 0.04 0.06 0.05 0.05 0.06 0.09 0.11 0.09 0.07 0.07 0.04 0.04 0.04 0.05 0.04 0.03 0.02 0.03 0.05 0.08 0.12 0.18 0.25 0.31
0.00 0.00 0.04 0.12 0.04 0.00 0.00 0.00 0.00 0.00 0.00 0.00 0.00 0.00 0.00 0.00 0.00 0.00 0.00 0.01 0.00 0.00 0.01 0.03 0.04 0.06 0.10 0.09 0.09 0.10 0.11 0.12 0.10 0.08 0.07 0.05 0.05 0.04 0.04 0.04 0.04 0.04 0.04 0.04 0.06 0.09 0.15 0.22 0.24
0.00 0.01 0.04 0.03 0.00 0.00 0.00 0.00 0.00 0.00 0.00 0.00 0.00 0.00 0.00 0.00 0.00 0.00 0.00 0.00 0.00 0.00 0.02 0.06 0.07 0.10 0.15 0.16 0.17 0.20 0.18 0.16 0.12 0.09 0.06 0.07 0.06 0.03 0.02 0.04 0.08 0.05 0.02 0.03 0.05 0.09 0.15 0.19 0.23
0.00 0.01 0.03 0.02 0.01 0.00 0.00 0.00 0.00 0.00 0.00 0.00 0.00 0.00 0.00 0.00 0.00 0.00 0.01 0.01 0.00 0.01 0.03 0.06 0.08 0.12 0.20 0.21 0.18 0.27 0.29 0.27 0.17 0.10 0.07 0.07 0.04 0.02 0.02 0.06 0.08 0.07 0.04 0.02 0.02 0.05 0.09 0.13 0.18
0.00 0.03 0.07 0.05 0.01 0.00 0.01 0.01 0.01 0.01 0.00 0.00 0.00 0.00 0.00 0.00 0.01 0.00 0.01 0.01 0.00 0.02 0.03 0.04 0.07 0.13 0.21 0.24 0.28 0.39 0.42 0.36 0.21 0.10 0.11 0.09 0.07 0.02 0.02 0.05 0.05 0.08 0.08 0.03 0.02 0.02 0.04 0.06 0.09
0.00 0.05 0.11 0.04 0.02 0.02 0.02 0.01 0.02 0.01 0.00 0.00 0.00 0.00 0.01 0.01 0.00 0.00 0.00 0.00 0.00 0.01 0.03 0.05 0.06 0.09 0.17 0.27 0.34 0.45 0.51 0.45 0.28 0.13 0.13 0.11 0.07 0.03 0.02 0.02 0.03 0.03 0.03 0.02 0.02 0.01 0.01 0.01 0.02
0.00 0.03 0.07 0.07 0.06 0.11 0.04 0.02 0.01 0.01 0.01 0.01 0.01 0.03 0.08 0.05 0.02 0.01 0.01 0.01 0.00 0.00 0.01 0.04 0.06 0.11 0.21 0.31 0.42 0.48 0.60 0.69 0.48 0.24 0.14 0.10 0.07 0.04 0.02 0.02 0.02 0.01 0.01 0.01 0.01 0.01 0.01 0.01 0.01
0.00 0.04 0.16 0.19 0.08 0.07 0.03 0.02 0.03 0.03 0.02 0.02 0.02 0.05 0.07 0.05 0.05 0.06 0.06 0.05 0.04 0.02 0.01 0.02 0.04 0.09 0.15 0.25 0.32 0.47 0.61 0.75 0.57 0.29 0.17 0.10 0.10 0.14 0.11 0.06 0.03 0.02 0.02 0.00 0.00 0.00 0.00 0.00 0.01
0.00 0.06 0.14 0.11 0.05 0.05 0.04 0.04 0.06 0.06 0.05 0.05 0.06 0.09 0.08 0.09 0.13 0.17 0.19 0.19 0.15 0.11 0.05 0.04 0.04 0.06 0.10 0.14 0.26 0.46 0.57 0.73 0.57 0.48 0.43 0.30 0.36 0.36 0.20 0.16 0.08 0.03 0.01 0.00 0.00 0.00 0.00 0.00 0.00
0.01 0.05 0.07 0.06 0.05 0.04 0.04 0.05 0.07 0.07 0.07 0.07 0.08 0.12 0.14 0.15 0.18 0.22 0.26 0.26 0.24 0.21 0.16 0.12 0.10 0.10 0.13 0.23 0.34 0.46 0.60 0.72 0.83 0.90 0.75 0.64 0.56 0.40 0.17 0.13 0.10 0.03 0.01 0.01 0.00 0.00 0.00 0.00 0.00
0.02 0.03 0.03 0.04 0.04 0.04 0.05 0.06 0.07 0.07 0.07 0.08 0.09 0.15 0.22 0.27 0.27 0.27 0.32 0.38 0.40 0.37 0.35 0.28 0.17 0.17 0.20 0.27 0.40 0.55 0.57 0.67 0.76 0.74 0.52 0.60 0.60 0.40 0.22 0.19 0.15 0.05 0.02 0.01 0.01 0.00 0.00 0.00 0.00
0.04 0.06 0.06 0.05 0.05 0.07 0.08 0.08 0.07 0.09 0.11 0.10 0.13 0.20 0.29 0.34 0.33 0.29 0.30 0.35 0.42 0.51 0.58 0.55 0.39 0.32 0.32 0.34 0.35 0.39 0.40 0.50 0.75 0.78 0.47 0.45 0.46 0.42 0.33 0.16 0.13 0.07 0.04 0.03 0.01 0.01 0.00 0.00 0.00
0.05 0.07 0.07 0.04 0.06 0.07 0.10 0.10 0.08 0.10 0.13 0.12 0.14 0.21 0.28 0.36 0.39 0.38 0.35 0.33 0.32 0.36 0.48 0.57 0.54 0.53 0.49 0.41 0.34 0.31 0.34 0.44 0.52 0.45 0.31 0.34 0.36 0.39 0.41 0.24 0.13 0.07 0.04 0.03 0.01 0.00 0.00 0.00 0.00
0.01 0.02 0.03 0.02 0.04 0.06 0.10 0.10 0.06 0.08 0.12 0.11 0.10 0.14 0.18 0.25 0.31 0.35 0.32 0.26 0.25 0.26 0.32 0.42 0.50 0.56 0.58 0.59 0.56 0.45 0.42 0.45 0.41 0.35 0.30 0.30 0.30 0.36 0.41 0.30 0.18 0.09 0.06 0.03 0.02 0.00 0.00 0.00 0.00
0.00 0.01 0.05 0.03 0.05 0.08 0.12 0.10 0.07 0.10 0.09 0.08 0.07 0.08 0.11 0.12 0.15 0.22 0.27 0.27 0.25 0.25 0.25 0.31 0.36 0.43 0.52 0.61 0.68 0.65 0.59 0.51 0.44 0.37 0.31 0.28 0.27 0.31 0.40 0.34 0.22 0.15 0.14 0.11 0.05 0.01 0.00 0.00 0.00
0.01 0.03 0.08 0.06 0.07 0.08 0.08 0.08 0.08 0.07 0.05 0.03 0.03 0.03 0.05 0.07 0.09 0.11 0.15 0.20 0.24 0.24 0.23 0.24 0.28 0.32 0.40 0.50 0.57 0.57 0.55 0.50 0.47 0.44 0.31 0.26 0.25 0.31 0.42 0.47 0.39 0.33 0.28 0.24 0.14 0.05 0.02 0.01 0.02
0.02 0.02 0.03 0.04 0.04 0.05 0.06 0.07 0.06 0.04 0.02 0.01 0.01 0.02 0.02 0.01 0.03 0.06 0.09 0.15 0.23 0.24 0.24 0.24 0.26 0.27 0.30 0.35 0.42 0.46 0.42 0.40 0.44 0.41 0.37 0.39 0.44 0.48 0.60 0.71 0.70 0.64 0.53 0.45 0.36 0.25 0.12 0.04 0.02
0.02 0.00 0.00 0.01 0.01 0.01 0.01 0.02 0.02 0.01 0.01 0.00 0.00 0.01 0.01 0.01 0.01 0.01 0.02 0.06 0.13 0.18 0.17 0.19 0.24 0.26 0.24 0.23 0.28 0.32 0.31 0.38 0.46 0.52 0.56 0.59 0.62 0.66 0.81 0.95 1.08 1.06 0.84 0.73 0.68 0.60 0.49 0.25 0.07
0.01 0.01 0.00 0.01 0.01 0.01 0.01 0.01 0.01 0.01 0.01 0.00 0.01 0.01 0.01 0.01 0.01 0.01 0.01 0.01 0.02 0.05 0.09 0.13 0.15 0.17 0.16 0.17 0.23 0.31 0.37 0.41 0.52 0.66 0.75 0.76 0.75 0.78 0.82 0.96 1.07 1.05 0.98 0.93 0.85 0.81 0.81 0.56 0.24
0.00 0.00 0.00 0.00 0.00 0.01 0.01 0.01 0.02 0.02 0.02 0.01 0.02 0.02 0.02 0.02 0.02 0.02 0.02 0.01 0.01 0.02 0.03 0.06 0.11 0.14 0.14 0.21 0.40 0.67 0.91 0.97 0.97 0.97 1.10 1.18 1.13 1.04 1.01 1.02 1.13 1.15 1.16 1.06 0.97 0.89 0.91 0.79 0.52
0.00 0.00 0.00 0.00 0.00 0.00 0.00 0.01 0.02 0.04 0.05 0.06 0.06 0.07 0.07 0.08 0.06 0.04 0.03 0.03 0.02 0.03 0.03 0.04 0.09 0.14 0.18 0.34 0.67 1.06 1.37 1.45 1.44 1.55 1.56 1.60 1.52 1.36 1.32 1.30 1.36 1.28 1.17 1.05 0.97 0.87 0.87 0.96 0.82
0.00 0.00 0.00 0.00 0.01 0.00 0.00 0.01 0.03 0.07 0.12 0.16 0.16 0.17 0.18 0.15 0.11 0.08 0.07 0.06 0.08 0.10 0.11 0.13 0.20 0.33 0.50 0.65 0.82 1.11 1.29 1.39 1.51 1.66 1.78 1.88 1.98 1.94 1.85 1.75 1.55 1.33 1.20 1.12 1.09 1.01 0.94 0.94 0.89
0.00 0.00 0.00 0.00 0.00 0.00 0.00 0.02 0.08 0.16 0.20 0.24 0.24 0.25 0.24 0.19 0.13 0.10 0.10 0.11 0.16 0.24 0.26 0.30 0.40 0.50 0.58 0.69 0.82 0.96 1.04 1.20 1.37 1.52 1.66 1.79 1.89 1.88 1.81 1.67 1.42 1.20 1.09 1.08 1.11 1.07 1.00 0.94 0.89
0.00 0.00 0.00 0.01 0.02 0.02 0.02 0.06 0.16 0.17 0.17 0.20 0.21 0.18 0.15 0.15 0.15 0.14 0.13 0.19 0.24 0.33 0.37 0.44 0.52 0.62 0.65 0.72 0.81 0.88 0.94 1.06 1.22 1.27 1.29 1.29 1.27 1.27 1.26 1.21 1.16 1.09 1.03 1.05 1.13 1.14 1.09 1.01 0.92
0.00 0.00 0.01 0.02 0.03 0.04 0.04 0.13 0.24 0.16 0.10 0.08 0.10 0.11 0.12 0.17 0.21 0.20 0.20 0.27 0.33 0.41 0.51 0.60 0.67 0.69 0.71 0.79 0.88 0.89 0.95 1.05 1.13 1.05 0.98 0.98 0.97 1.00 0.96 1.01 1.00 0.96 0.96 0.95 0.97 1.02 1.05 1.00 0.90
0.00 0.00 0.01 0.03 0.02 0.02 0.05 0.15 0.15 0.07 0.05 0.05 0.09 0.15 0.20 0.27 0.30 0.31 0.33 0.38 0.41 0.49 0.60 0.68 0.73 0.75 0.82 0.85 0.93 1.08 1.08 1.04 1.00 0.86 0.77 0.76 0.71 0.66 0.71 0.83 0.90 0.86 0.84 0.85 0.88 0.96 0.96 0.89 0.84
0.00 0.01 0.02 0.03 0.04 0.07 0.11 0.15 0.13 0.08 0.10 0.12 0.17 0.24 0.35 0.44 0.45 0.47 0.52 0.56 0.56 0.57 0.65 0.73 0.80 0.87 0.89 0.91 1.02 1.19 1.13 0.89 0.72 0.62 0.60 0.61 0.63 0.62 0.65 0.65 0.63 0.60 0.63 0.65 0.71 0.81 0.84 0.79 0.73
0.05 0.03 0.02 0.02 0.03 0.14 0.29 0.42 0.46 0.45 0.38 0.42 0.42 0.49 0.63 0.68 0.69 0.69 0.70 0.72 0.66 0.67 0.73 0.78 0.83 0.93 0.97 0.93 1.02 1.06 0.85 0.60 0.48 0.46 0.41 0.38 0.39 0.41 0.47 0.44 0.42 0.46 0.49 0.46 0.50 0.55 0.61 0.66 0.65
0.07 0.06 0.03 0.05 0.07 0.16 0.33 0.54 0.64 0.70 0.68 0.79 0.85 0.96 0.89 0.83 0.83 0.77 0.70 0.68 0.57 0.57 0.67 0.75 0.84 0.89 0.84 0.80 0.78 0.65 0.47 0.37 0.34 0.30 0.24 0.20 0.20 0.20 0.26 0.28 0.28 0.35 0.45 0.46 0.48 0.49 0.47 0.49 0.50

GEFSSGP_prec_meanprecacc_042.txt.gz
Total_Precipitation_Accumulation
0.02 0.07 0.16 0.23 0.36 0.14 0.00 0.00 0.00 0.00 0.00 0.00 0.00 0.00 0.00 0.02 0.11 0.28 0.08 0.04 0.01 0.00 0.01 0.03 0.04 0.03 0.04 0.03 0.03 0.05 0.09 0.10 0.07 0.06 0.06 0.05 0.04 0.04 0.04 0.03 0.03 0.02 0.04 0.07 0.11 0.18 0.22 0.26 0.31
0.05 0.16 0.22 0.31 0.23 0.02 0.01 0.00 0.00 0.00 0.00 0.00 0.00 0.00 0.00 0.00 0.01 0.03 0.08 0.08 0.01 0.00 0.01 0.01 0.02 0.04 0.06 0.05 0.05 0.06 0.09 0.12 0.09 0.07 0.07 0.04 0.04 0.04 0.05 0.04 0.03 0.02 0.03 0.05 0.08 0.12 0.18 0.25 0.31
0.11 0.18 0.25 0.24 0.06 0.01 0.01 0.01 0.01 0.00 0.00 0.00 0.00 0.00 0.00 0.01 0.01 0.02 0.04 0.05 0.01 0.00 0.01 0.03 0.04 0.06 0.10 0.09 0.09 0.11 0.11 0.12 0.10 0.08 0.07 0.05 0.05 0.04 0.04 0.04 0.04 0.04 0.04 0.04 0.07 0.09 0.16 0.22 0.24
0.11 0.20 0.21 0.10 0.02 0.02 0.02 0.01 0.01 0.00 0.00 0.00 0.00 0.00 0.01 0.01 0.01 0.02 0.04 0.04 0.02 0.01 0.02 0.06 0.07 0.10 0.15 0.16 0.17 0.21 0.18 0.16 0.12 0.09 0.06 0.07 0.06 0.03 0.02 0.04 0.08 0.05 0.02 0.03 0.05 0.10 0.16 0.20 0.23
0.09 0.17 0.12 0.06 0.05 0.06 0.07 0.04 0.02 0.03 0.01 0.00 0.00 0.00 0.01 0.02 0.02 0.04 0.07 0.05 0.04 0.04 0.04 0.06 0.09 0.12 0.20 0.21 0.18 0.27 0.29 0.28 0.17 0.10 0.07 0.07 0.04 0.02 0.02 0.06 0.08 0.07 0.04 0.02 0.02 0.06 0.10 0.14 0.19
0.09 0.22 0.17 0.12 0.11 0.13 0.19 0.14 0.07 0.06 0.03 0.01 0.01 0.01 0.03 0.05 0.06 0.07 0.08 0.09 0.10 0.10 0.09 0.08 0.12 0.16 0.23 0.25 0.28 0.40 0.42 0.36 0.21 0.10 0.11 0.09 0.07 0.02 0.02 0.05 0.05 0.08 0.08 0.03 0.02 0.03 0.05 0.06 0.10
0.06 0.18 0.22 0.13 0.15 0.29 0.29 0.23 0.14 0.09 0.05 0.06 0.03 0.03 0.08 0.08 0.09 0.08 0.09 0.13 0.17 0.20 0.19 0.16 0.17 0.19 0.26 0.34 0.39 0.49 0.54 0.47 0.29 0.14 0.13 0.11 0.07 0.03 0.02 0.02 0.03 0.03 0.03 0.02 0.02 0.02 0.02 0.02 0.03
0.02 0.10 0.18 0.24 0.31 0.49 0.45 0.26 0.11 0.06 0.08 0.09 0.08 0.12 0.28 0.22 0.17 0.14 0.12 0.15 0.18 0.21 0.23 0.24 0.23 0.28 0.37 0.46 0.56 0.60 0.71 0.77 0.53 0.28 0.16 0.11 0.08 0.05 0.02 0.02 0.02 0.01 0.01 0.01 0.01 0.01 0.01 0.01 0.01
0.02 0.09 0.31 0.59 0.58 0.35 0.31 0.25 0.12 0.09 0.08 0.09 0.10 0.15 0.22 0.25 0.24 0.22 0.21 0.22 0.21 0.20 0.22 0.26 0.28 0.33 0.36 0.40 0.50 0.68 0.79 0.90 0.69 0.38 0.24 0.15 0.12 0.14 0.12 0.07 0.04 0.03 0.02 0.00 0.00 0.00 0.00 0.00 0.02
0.02 0.12 0.37 0.52 0.38 0.22 0.19 0.17 0.15 0.13 0.10 0.10 0.12 0.16 0.20 0.23 0.28 0.31 0.33 0.36 0.33 0.30 0.25 0.24 0.23 0.29 0.35 0.34 0.51 0.74 0.76 0.87 0.67 0.56 0.50 0.38 0.41 0.38 0.24 0.19 0.15 0.09 0.03 0.00 0.00 0.00 0.00 0.00 0.00
0.03 0.11 0.22 0.21 0.15 0.15 0.10 0.10 0.11 0.10 0.09 0.10 0.11 0.17 0.19 0.23 0.27 0.32 0.36 0.37 0.36 0.33 0.29 0.27 0.26 0.27 0.32 0.49 0.69 0.85 0.86 0.87 0.92 0.98 0.82 0.73 0.64 0.45 0.23 0.21 0.20 0.11 0.06 0.02 0.00 0.00 0.00 0.00 0.00
0.04 0.07 0.08 0.10 0.10 0.10 0.09 0.08 0.09 0.09 0.09 0.09 0.12 0.17 0.24 0.29 0.30 0.31 0.37 0.42 0.45 0.44 0.42 0.35 0.26 0.27 0.33 0.45 0.64 0.86 0.87 0.86 0.88 0.83 0.60 0.68 0.69 0.48 0.33 0.34 0.33 0.18 0.11 0.06 0.02 0.00 0.00 0.00 0.00
0.05 0.08 0.08 0.07 0.09 0.10 0.11 0.10 0.09 0.10 0.12 0.11 0.15 0.22 0.30 0.35 0.34 0.30 0.31 0.36 0.43 0.53 0.61 0.59 0.43 0.36 0.38 0.42 0.47 0.59 0.65 0.71 0.91 0.93 0.62 0.58 0.57 0.54 0.50 0.37 0.37 0.30 0.23 0.14 0.05 0.02 0.01 0.00 0.00
0.05 0.08 0.08 0.06 0.08 0.09 0.11 0.11 0.09 0.11 0.14 0.13 0.15 0.22 0.29 0.36 0.40 0.38 0.35 0.33 0.33 0.36 0.49 0.57 0.55 0.54 0.51 0.45 0.39 0.39 0.43 0.54 0.65 0.61 0.49 0.50 0.49 0.52 0.56 0.40 0.32 0.30 0.35 0.27 0.14 0.06 0.03 0.02 0.01
0.02 0.04 0.06 0.07 0.10 0.12 0.15 0.13 0.08 0.09 0.12 0.11 0.11 0.14 0.19 0.25 0.31 0.35 0.32 0.26 0.25 0.26 0.32 0.42 0.50 0.56 0.58 0.59 0.57 0.47 0.46 0.51 0.50 0.47 0.50 0.55 0.50 0.54 0.60 0.46 0.32 0.25 0.29 0.30 0.25 0.17 0.09 0.05 0.03
0.02 0.06 0.15 0.13 0.16 0.19 0.20 0.15 0.09 0.10 0.09 0.08 0.07 0.08 0.11 0.12 0.15 0.22 0.27 0.27 0.25 0.25 0.25 0.31 0.36 0.43 0.52 0.61 0.68 0.66 0.61 0.55 0.49 0.44 0.40 0.43 0.42 0.45 0.56 0.52 0.35 0.26 0.32 0.39 0.38 0.28 0.17 0.08 0.04
0.04 0.10 0.16 0.13 0.13 0.14 0.13 0.11 0.08 0.07 0.05 0.03 0.03 0.03 0.05 0.07 0.09 0.11 0.15 0.20 0.24 0.24 0.23 0.24 0.28 0.32 0.40 0.50 0.57 0.57 0.56 0.51 0.49 0.47 0.36 0.34 0.34 0.42 0.57 0.63 0.56 0.49 0.46 0.48 0.46 0.40 0.28 0.15 0.08
0.03 0.02 0.04 0.05 0.05 0.06 0.07 0.07 0.06 0.04 0.02 0.01 0.01 0.02 0.02 0.01 0.03 0.06 0.09 0.15 0.23 0.24 0.24 0.24 0.26 0.27 0.30 0.35 0.42 0.47 0.42 0.40 0.45 0.44 0.42 0.45 0.51 0.55 0.69 0.82 0.86 0.86 0.78 0.69 0.68 0.68 0.51 0.30 0.17
0.02 0.00 0.00 0.01 0.01 0.01 0.02 0.02 0.02 0.01 0.01 0.00 0.00 0.01 0.01 0.01 0.01 0.01 0.02 0.06 0.13 0.18 0.17 0.19 0.24 0.26 0.24 0.23 0.28 0.32 0.32 0.39 0.46 0.53 0.59 0.63 0.66 0.71 0.86 1.02 1.19 1.24 1.04 0.94 0.97 0.99 0.91 0.60 0.30
0.01 0.01 0.00 0.01 0.01 0.01 0.01 0.01 0.01 0.01 0.01 0.00 0.01 0.01 0.01 0.01 0.01 0.01 0.01 0.01 0.02 0.05 0.09 0.13 0.15 0.17 0.16 0.17 0.23 0.31 0.37 0.41 0.52 0.68 0.78 0.80 0.79 0.83 0.87 1.02 1.14 1.16 1.13 1.10 1.04 1.06 1.15 0.91 0.54
0.00 0.00 0.00 0.00 0.00 0.01 0.01 0.01 0.02 0.02 0.02 0.01 0.02 0.02 0.02 0.02 0.02 0.02 0.02 0.01 0.01 0.02 0.03 0.06 0.11 0.14 0.14 0.22 0.41 0.67 0.91 0.97 0.98 0.99 1.12 1.22 1.17 1.10 1.07 1.09 1.19 1.23 1.28 1.20 1.13 1.07 1.13 1.05 0.79
0.00 0.00 0.00 0.00 0.00 0.00 0.00 0.02 0.02 0.04 0.05 0.06 0.06 0.07 0.07 0.08 0.06 0.04 0.03 0.03 0.02 0.03 0.03 0.04 0.09 0.15 0.18 0.35 0.68 1.06 1.38 1.46 1.46 1.56 1.58 1.63 1.56 1.41 1.39 1.39 1.44 1.35 1.28 1.17 1.12 1.07 1.07 1.18 1.06
0.00 0.00 0.00 0.00 0.01 0.00 0.00 0.01 0.04 0.07 0.12 0.16 0.16 0.17 0.18 0.15 0.11 0.08 0.07 0.06 0.08 0.10 0.11 0.13 0.20 0.34 0.50 0.65 0.82 1.12 1.31 1.42 1.54 1.68 1.81 1.91 2.03 2.00 1.93 1.85 1.67 1.44 1.31 1.27 1.28 1.20 1.17 1.18 1.12
0.00 0.00 0.00 0.00 0.00 0.00 0.00 0.02 0.09 0.16 0.20 0.24 0.24 0.25 0.24 0.19 0.13 0.10 0.10 0.11 0.16 0.24 0.27 0.31 0.41 0.51 0.58 0.70 0.83 0.98 1.06 1.23 1.41 1.56 1.72 1.84 1.95 1.97 1.93 1.79 1.55 1.35 1.24 1.26 1.32 1.28 1.24 1.18 1.15
0.00 0.00 0.00 0.01 0.02 0.03 0.02 0.07 0.16 0.17 0.17 0.20 0.21 0.18 0.15 0.15 0.15 0.14 0.13 0.19 0.24 0.33 0.37 0.44 0.52 0.62 0.65 0.72 0.83 0.91 0.97 1.10 1.25 1.31 1.35 1.36 1.35 1.38 1.41 1.40 1.34 1.28 1.21 1.26 1.37 1.39 1.36 1.29 1.19
0.00 0.00 0.01 0.02 0.03 0.04 0.04 0.13 0.24 0.16 0.10 0.08 0.10 0.11 0.12 0.17 0.21 0.20 0.20 0.27 0.33 0.41 0.52 0.60 0.68 0.70 0.71 0.80 0.89 0.90 0.99 1.10 1.19 1.14 1.09 1.10 1.12 1.19 1.19 1.25 1.24 1.21 1.20 1.19 1.22 1.30 1.36 1.33 1.23
0.00 0.00 0.01 0.03 0.02 0.02 0.05 0.15 0.15 0.07 0.05 0.05 0.09 0.15 0.20 0.27 0.30 0.31 0.33 0.38 0.41 0.49 0.60 0.68 0.73 0.75 0.82 0.86 0.94 1.08 1.12 1.13 1.10 0.99 0.94 0.94 0.89 0.89 1.00 1.09 1.12 1.07 1.05 1.07 1.14 1.26 1.29 1.29 1.27
0.00 0.01 0.02 0.03 0.04 0.07 0.11 0.15 0.13 0.08 0.10 0.12 0.17 0.24 0.35 0.44 0.45 0.47 0.52 0.56 0.56 0.57 0.65 0.73 0.80 0.87 0.89 0.91 1.02 1.19 1.14 0.91 0.76 0.66 0.70 0.74 0.76 0.79 0.85 0.82 0.77 0.74 0.78 0.80 0.88 1.00 1.05 1.07 1.09
0.05 0.03 0.02 0.02 0.03 0.14 0.29 0.42 0.46 0.45 0.38 0.42 0.42 0.49 0.63 0.68 0.69 0.69 0.70 0.72 0.66 0.67 0.73 0.78 0.83 0.93 0.97 0.93 1.03 1.06 0.85 0.60 0.49 0.47 0.45 0.44 0.46 0.50 0.58 0.53 0.49 0.54 0.57 0.53 0.58 0.64 0.72 0.79 0.80
0.07 0.06 0.03 0.05 0.07 0.16 0.33 0.54 0.64 0.70 0.68 0.79 0.85 0.96 0.89 0.83 0.83 0.77 0.70 0.68 0.57 0.57 0.67 0.75 0.84 0.89 0.84 0.80 0.78 0.65 0.47 0.37 0.34 0.30 0.25 0.22 0.22 0.22 0.29 0.31 0.32 0.39 0.49 0.50 0.53 0.52 0.50 0.54 0.57